STARLINK-32598, 62046

Orbit data source: Space-Track

STARLINK-32598, 62046 is a payload satellite owned by SpaceX/Seattle (US) in LEO that was launched on Thu, 21 Nov 2024 UTC via an FALCON 9 launch vehicle from the Air Force Eastern Test Range (AFETR). Payload-class satellites include a variety of spacecraft equipped with specific instruments for various scientific and technological missions. These include communications satellites like Starlink; space stations such as the ISS; scientific satellites like the Hubble; Earth observation satellites from companies like Planet Labs, Umbra, and HawkEye 360; GPS; miniature CubeSats for education and research; and military/defense satellites.

Loading next visibility...
Identifier
62046, 2024-216Q
Orbit
LEO
Country
Flag of USUS
Related business
Manufacturer
SpaceX/Seattle
Mission
Operational Commercial Communications
Bus & Motor
STARLINK V2M, Unknown motor
Mass
730 kg wet, ~700 kg dry
Launch date (UTC)
2024-11-21 (9 months ago)
Launch vehicle
FALCON 9
Launch site
Air Force Eastern Test Range (AFETR)
Object type
Payload
Rocket body
Debris
Shape & HBR
Box + 2 Pan, 14.5 m
Radar Cross Section
36.964 m², Large (>1 m²)

Expand to show TLE details & history
Last TLE update: 22 hours ago

TLE from 22 hours ago
0 STARLINK-32598
1 62046U 24216Q   25241.53506311  .00015553  00000-0  57337-3 0  9998
2 62046  42.9991 261.0310 0001208 277.0329  83.0385 15.27587943 44497
Epoch: 2025-08-29T12:50Z
TLE epoch observation values (Epoch: 2025-08-29T12:50:29.452Z)
Latitude
-0.00004°
Longitude
90.42592°
Altitude
482.7 km
Speed
7.626 km/s
True Right ascension
17h 24m 07s
True Declination
0° 00' 00"
Sunlit
Object was in daylight at epoch
Visualization orbit readout
Latitude
Unknown
Longitude
Unknown
Altitude
Unknown
Speed
Unknown
Apparent Right ascension
Unknown
Apparent Declination
Unknown
Sunlit
N/A
Visualization observer readout
Local Sidereal Time
02:42:21
Azimuth
Unknown
Elevation
Unknown
Doppler factor
Unknown
Orbital elements
Apogee altitude
485.8 km
Perigee altitude
484.142 km
Semi-major axis
6,863.108 km
Eccentricity
0.00012
Inclination
42.9991°
RAAN
261.031°
Arg. of periapsis
277.0329°
True anomaly
83.05224°
Mean anomaly
83.0385°
Eccentric anomaly
83.04537°
Mean motion
3.81735 °/min
Orbital period
94.31 mins
BSTAR
0.00057337
Loading maneuver chart data...
Computing Atmospheric mass density...
Loading historical data...
Loading historical data...
Loading historical data...
Loading historical data...
Loading historical data...
Loading historical data...
Loading historical data...

Documentation

Showing up to 5 results
|